Flag for Belarus Weather past 2 weeks in Vitebsk, Belarus

Now
79 °F

Scattered clouds.


Feels Like: 79 °F
Forecast: 55 / 66 °F
Wind: 17 mph from Southwest

Location: Vitebsk

Current Time: Jun 3, 2015 at 4:57:53 PM

Latest Report: Jun 3, 2015 at 4:00 PM


Visibility: N/A

Pressure: 29.95 "Hg

Humidity: 42%

Dew point: 54 °F

Location of VitebskLocation

Historic Weather in Vitebsk — Graph

°F

Vitebsk temperature yesterday

Maximum temperature yesterday: 77 °F (at 2:00 PM)
Minimum temperature yesterday: 54 °F (at 6:00 AM)
Average temperature yesterday: 71 °F

Past Weeks' High & Low Weather Summary

 TemperatureHumidityPressure
High82 °F (May 27, 3:00 PM)100% (May 22, 5:00 PM)30.18 "Hg (May 22, 5:00 PM)
Low46 °F (May 23, 8:00 AM)28% (May 27, 2:00 PM)29.59 "Hg (May 27, 3:00 PM)
Average65 °F57%29.94 "Hg
* Reported May 19 4:00 PM — Jun 3 4:00 PM, Vitebsk, Weather by CustomWeather, © 2015

Note: Actual official high and low records may vary slightly from our data, if they occured in-between our weather recording intervals... More about our weather records

Advertising

Vitebsk weather history for previous 24 hours

 ConditionsComfort  
Time TempWeatherWind HumidityBarometerVisibility
4:00 PM
Wed, Jun 3
79 °FScattered clouds.17 mph42%29.95 "HgN/A
3:00 PM81 °FPartly sunny.15 mph39%29.95 "HgN/A
2:00 PM79 °FPartly sunny.15 mph45%29.95 "HgN/A
1:00 PM79 °FPartly sunny.17 mph42%29.98 "HgN/A
12:00 PM79 °FScattered clouds.15 mph42%29.98 "HgN/A
11:00 AM75 °FPassing clouds.10 mph50%29.98 "HgN/A
10:00 AM73 °FSunny.8 mph53%29.98 "Hg10 mi
9:00 AM70 °FSunny.6 mph60%29.98 "Hg10 mi
8:00 AM66 °FSunny.3 mph68%29.98 "Hg10 mi
7:00 AM63 °FSunny.1 mph68%29.98 "Hg10 mi
6:00 AM59 °FSunny.No wind88%29.98 "Hg10 mi
7:00 PM
Tue, Jun 2
77 °FSunny.8 mph32%30.01 "Hg10 mi
6:30 PM77 °FSunny.8 mph32%30.01 "Hg10 mi
6:00 PM77 °FSunny.6 mph32%30.01 "Hg10 mi
5:30 PM77 °FSunny.6 mph32%30.01 "Hg10 mi
5:00 PM77 °FSunny.8 mph32%30.01 "Hg10 mi
4:30 PM77 °FSunny.10 mph34%30.04 "Hg10 mi
4:00 PM77 °FSunny.6 mph34%30.04 "Hg10 mi
Weather by CustomWeather, © 2015

See weather overviewHow to use our weather pages